Location: �terpigny
(49.8910°N, 2.9249°E)
Time: 11:38:03
(UTC+00:00)

RS-44 - Pass Details

Date: 03 July 2022
Orbit: 1175 x 1510 km, 82.5° (Epoch: 11 August)

Event Time Altitude Azimuth Distance (km) Brightness Sun altitude
Rises 22:15:49 0° 244° (WSW) 4,438 ? -14.1°
Reaches altitude 10° 22:19:29 10° 259° (W) 3,521 ? -14.3°
Maximum altitude 22:25:43 22° 307° (NW) 2,782 ? -14.7°
Drops below altitude 10° 22:32:12 10° 355° (N) 3,662 ? -15.1°
Sets 22:36:09 0° 10° (N) 4,663 ? -15.3°
